User: anonymous   Login
Location: Unspecified
(0.0000°N, 0.0000°E)
Time: 22:23:40
(UTC+02:00)
Language:

CZ-4B R/B - Orbit

View from above orbital plane
View from above orbital plane
View from above satellite
View from above satellite

Ground track
Ground track

The orbit data is extracted from the following two-line orbital elements,

1 33410U 08053C   15213.93768286  .00002407  00000-0  18607-3 0  9996
2 33410 097.6351 184.4724 0123280 331.1294 028.3143 14.96630722368225
Epoch (UTC): 01 August 2015 22:30:15
Eccentricity: 0.0123280
inclination: 97.6351°
perigee height: 491 km
apogee height: 663 km
right ascension of ascending node: 184.4724°
argument of perigee: 331.1294°
revolutions per day: 14.96630722
mean anomaly at epoch: 28.3143°
orbit number at epoch: 36822

The dashed part of the orbit path shows where the satellite is in the earth's shadow,  

DLR